Year,Month,Day,Hour,Minute,Value (Times are PST for temperature in C)
2009,06,27,00,00,11.30
2009,06,27,00,01,11.30
2009,06,27,00,02,11.30
2009,06,27,00,03,11.30
2009,06,27,00,04,11.20
2009,06,27,00,05,11.20
2009,06,27,00,06,11.20
2009,06,27,00,07,11.20
2009,06,27,00,08,11.20
2009,06,27,00,09,11.20
2009,06,27,00,10,11.10
2009,06,27,00,11,11.10
2009,06,27,00,12,11.10
2009,06,27,00,13,11.10
2009,06,27,00,14,11.10
2009,06,27,00,15,11.10
2009,06,27,00,16,11.10
2009,06,27,00,17,11.10
2009,06,27,00,18,11.10
2009,06,27,00,19,11.10
2009,06,27,00,20,11.10
2009,06,27,00,21,11.10
2009,06,27,00,22,11.10
2009,06,27,00,23,11.10
2009,06,27,00,24,11.10
2009,06,27,00,25,11.10
2009,06,27,00,26,11.00
2009,06,27,00,27,10.90
2009,06,27,00,28,10.90
2009,06,27,00,29,10.90
2009,06,27,00,30,10.90
2009,06,27,00,31,10.90
2009,06,27,00,32,10.90
2009,06,27,00,33,10.90
2009,06,27,00,34,10.90
2009,06,27,00,35,10.90
2009,06,27,00,36,10.90
2009,06,27,00,37,10.90
2009,06,27,00,38,10.90
2009,06,27,00,39,10.80
2009,06,27,00,40,10.80
2009,06,27,00,41,10.80
2009,06,27,00,42,10.80
2009,06,27,00,43,10.80
2009,06,27,00,44,10.80
2009,06,27,00,45,10.80
2009,06,27,00,46,10.80
2009,06,27,00,47,10.80
2009,06,27,00,48,10.80
2009,06,27,00,49,10.80
2009,06,27,00,50,10.70
2009,06,27,00,51,10.70
2009,06,27,00,52,10.70
2009,06,27,00,53,10.70
2009,06,27,00,54,10.70
2009,06,27,00,55,10.70
2009,06,27,00,56,10.70
2009,06,27,00,57,10.70
2009,06,27,00,58,10.70
2009,06,27,00,59,10.60
2009,06,27,01,00,10.60
2009,06,27,01,01,10.60
2009,06,27,01,02,10.60
2009,06,27,01,03,10.60
2009,06,27,01,04,10.60
2009,06,27,01,05,10.60
2009,06,27,01,06,10.60
2009,06,27,01,07,10.60
2009,06,27,01,08,10.60
2009,06,27,01,09,10.60
2009,06,27,01,10,10.60
2009,06,27,01,11,10.60
2009,06,27,01,12,10.60
2009,06,27,01,13,10.60
2009,06,27,01,14,10.60
2009,06,27,01,15,10.60
2009,06,27,01,16,10.60
2009,06,27,01,17,10.60
2009,06,27,01,18,10.60
2009,06,27,01,19,10.60
2009,06,27,01,20,10.60
2009,06,27,01,21,10.60
2009,06,27,01,22,10.60
2009,06,27,01,23,10.60
2009,06,27,01,24,10.60
2009,06,27,01,25,10.60
2009,06,27,01,26,10.60
2009,06,27,01,27,10.60
2009,06,27,01,28,10.60
2009,06,27,01,29,10.60
2009,06,27,01,30,10.60
2009,06,27,01,31,10.60
2009,06,27,01,32,10.60
2009,06,27,01,33,10.60
2009,06,27,01,34,10.60
2009,06,27,01,35,10.60
2009,06,27,01,36,10.60
2009,06,27,01,37,10.60
2009,06,27,01,38,10.60
2009,06,27,01,39,10.60
2009,06,27,01,40,10.60
2009,06,27,01,41,10.60
2009,06,27,01,42,10.60
2009,06,27,01,43,10.60
2009,06,27,01,44,10.60
2009,06,27,01,45,10.60
2009,06,27,01,46,10.60
2009,06,27,01,47,10.60
2009,06,27,01,48,10.60
2009,06,27,01,49,10.60
2009,06,27,01,50,10.60
2009,06,27,01,51,10.60
2009,06,27,01,52,10.60
2009,06,27,01,53,10.60
2009,06,27,01,54,10.60
2009,06,27,01,55,10.60
2009,06,27,01,56,10.60
2009,06,27,01,57,10.60
2009,06,27,01,58,10.60
2009,06,27,01,59,10.60
2009,06,27,02,00,10.60
2009,06,27,02,01,10.60
2009,06,27,02,02,10.60
2009,06,27,02,03,10.60
2009,06,27,02,04,10.60
2009,06,27,02,05,10.60
2009,06,27,02,06,10.60
2009,06,27,02,07,10.60
2009,06,27,02,08,10.60
2009,06,27,02,09,10.60
2009,06,27,02,10,10.60
2009,06,27,02,11,10.60
2009,06,27,02,12,10.60
2009,06,27,02,13,10.60
2009,06,27,02,14,10.60
2009,06,27,02,15,10.50
2009,06,27,02,16,10.40
2009,06,27,02,17,10.40
2009,06,27,02,18,10.40
2009,06,27,02,19,10.40
2009,06,27,02,20,10.40
2009,06,27,02,21,10.40
2009,06,27,02,22,10.40
2009,06,27,02,23,10.40
2009,06,27,02,24,10.40
2009,06,27,02,25,10.40
2009,06,27,02,26,10.40
2009,06,27,02,27,10.40
2009,06,27,02,28,10.40
2009,06,27,02,29,10.40
2009,06,27,02,30,10.40
2009,06,27,02,31,10.40
2009,06,27,02,32,10.40
2009,06,27,02,33,10.40
2009,06,27,02,34,10.40
2009,06,27,02,35,10.40
2009,06,27,02,36,10.40
2009,06,27,02,37,10.40
2009,06,27,02,38,10.40
2009,06,27,02,39,10.40
2009,06,27,02,40,10.40
2009,06,27,02,41,10.40
2009,06,27,02,42,10.40
2009,06,27,02,43,10.40
2009,06,27,02,44,10.40
2009,06,27,02,45,10.40
2009,06,27,02,46,10.40
2009,06,27,02,47,10.40
2009,06,27,02,48,10.40
2009,06,27,02,49,10.30
2009,06,27,02,50,10.30
2009,06,27,02,51,10.30
2009,06,27,02,52,10.30
2009,06,27,02,53,10.30
2009,06,27,02,54,10.30
2009,06,27,02,55,10.20
2009,06,27,02,56,10.20
2009,06,27,02,57,10.20
2009,06,27,02,58,10.20
2009,06,27,02,59,10.20
2009,06,27,03,00,10.20
2009,06,27,03,01,10.20
2009,06,27,03,02,10.20
2009,06,27,03,03,10.10
2009,06,27,03,04,10.10
2009,06,27,03,05,10.10
2009,06,27,03,06,10.10
2009,06,27,03,07,10.10
2009,06,27,03,08,10.10
2009,06,27,03,09,10.10
2009,06,27,03,10,10.10
2009,06,27,03,11,10.10
2009,06,27,03,12,10.10
2009,06,27,03,13,10.10
2009,06,27,03,14,10.10
2009,06,27,03,15,10.10
2009,06,27,03,16,10.10
2009,06,27,03,17,10.10
2009,06,27,03,18,10.10
2009,06,27,03,19,10.10
2009,06,27,03,20,10.10
2009,06,27,03,21,10.10
2009,06,27,03,22,10.10
2009,06,27,03,23,10.00
2009,06,27,03,24,9.90
2009,06,27,03,25,9.90
2009,06,27,03,26,9.90
2009,06,27,03,27,9.90
2009,06,27,03,28,9.90
2009,06,27,03,29,9.90
2009,06,27,03,30,9.90
2009,06,27,03,31,9.80
2009,06,27,03,32,9.80
2009,06,27,03,33,9.80
2009,06,27,03,34,9.70
2009,06,27,03,35,9.70
2009,06,27,03,36,9.70
2009,06,27,03,37,9.70
2009,06,27,03,38,9.70
2009,06,27,03,39,9.70
2009,06,27,03,40,9.60
2009,06,27,03,41,9.60
2009,06,27,03,42,9.60
2009,06,27,03,43,9.50
2009,06,27,03,44,9.50
2009,06,27,03,45,9.50
2009,06,27,03,46,9.40
2009,06,27,03,47,9.40
2009,06,27,03,48,9.40
2009,06,27,03,49,9.40
2009,06,27,03,50,9.30
2009,06,27,03,51,9.30
2009,06,27,03,52,9.30
2009,06,27,03,53,9.30
2009,06,27,03,54,9.20
2009,06,27,03,55,9.20
2009,06,27,03,56,9.20
2009,06,27,03,57,9.20
2009,06,27,03,58,9.20
2009,06,27,03,59,9.20
2009,06,27,04,00,9.20
2009,06,27,04,01,9.20
2009,06,27,04,02,9.20
2009,06,27,04,03,9.20
2009,06,27,04,04,9.20
2009,06,27,04,05,9.20
2009,06,27,04,06,9.20
2009,06,27,04,07,9.20
2009,06,27,04,08,9.20
2009,06,27,04,09,9.20
2009,06,27,04,10,9.20
2009,06,27,04,11,9.10
2009,06,27,04,12,9.10
2009,06,27,04,13,9.10
2009,06,27,04,14,9.10
2009,06,27,04,15,9.10
2009,06,27,04,16,9.00
2009,06,27,04,17,9.00
2009,06,27,04,18,9.00
2009,06,27,04,19,9.00
2009,06,27,04,20,9.00
2009,06,27,04,21,9.10
2009,06,27,04,22,9.10
2009,06,27,04,23,9.20
2009,06,27,04,24,9.20
2009,06,27,04,25,9.20
2009,06,27,04,26,9.20
2009,06,27,04,27,9.20
2009,06,27,04,28,9.20
2009,06,27,04,29,9.30
2009,06,27,04,30,9.30
2009,06,27,04,31,9.30
2009,06,27,04,32,9.30
2009,06,27,04,33,9.40
2009,06,27,04,34,9.40
2009,06,27,04,35,9.40
2009,06,27,04,36,9.40
2009,06,27,04,37,9.40
2009,06,27,04,38,9.40
2009,06,27,04,39,9.40
2009,06,27,04,40,9.40
2009,06,27,04,41,9.40
2009,06,27,04,42,9.40
2009,06,27,04,43,9.40
2009,06,27,04,44,9.40
2009,06,27,04,45,9.40
2009,06,27,04,46,9.40
2009,06,27,04,47,9.40
2009,06,27,04,48,9.30
2009,06,27,04,49,9.30
2009,06,27,04,50,9.30
2009,06,27,04,51,9.30
2009,06,27,04,52,9.30
2009,06,27,04,53,9.30
2009,06,27,04,54,9.30
2009,06,27,04,55,9.20
2009,06,27,04,56,9.20
2009,06,27,04,57,9.20
2009,06,27,04,58,9.20
2009,06,27,04,59,9.20
2009,06,27,05,00,9.20
2009,06,27,05,01,9.20
2009,06,27,05,02,9.20
2009,06,27,05,03,9.10
2009,06,27,05,04,9.10
2009,06,27,05,05,9.10
2009,06,27,05,06,9.10
2009,06,27,05,07,9.10
2009,06,27,05,08,9.10
2009,06,27,05,09,9.10
2009,06,27,05,10,9.00
2009,06,27,05,11,9.00
2009,06,27,05,12,9.00
2009,06,27,05,13,9.00
2009,06,27,05,14,9.00
2009,06,27,05,15,9.00
2009,06,27,05,16,9.00
2009,06,27,05,17,9.00
2009,06,27,05,18,9.00
2009,06,27,05,19,9.00
2009,06,27,05,20,9.00
2009,06,27,05,21,9.00
2009,06,27,05,22,9.00
2009,06,27,05,23,9.00
2009,06,27,05,24,9.00
2009,06,27,05,25,9.00
2009,06,27,05,26,9.00
2009,06,27,05,27,9.00
2009,06,27,05,28,9.00
2009,06,27,05,29,9.00
2009,06,27,05,30,9.00
2009,06,27,05,31,9.00
2009,06,27,05,32,9.00
2009,06,27,05,33,8.90
2009,06,27,05,34,8.90
2009,06,27,05,35,8.90
2009,06,27,05,36,8.90
2009,06,27,05,37,8.90
2009,06,27,05,38,8.90
2009,06,27,05,39,8.90
2009,06,27,05,40,8.90
2009,06,27,05,41,8.90
2009,06,27,05,42,8.80
2009,06,27,05,43,8.80
2009,06,27,05,44,8.80
2009,06,27,05,45,8.80
2009,06,27,05,46,8.80
2009,06,27,05,47,8.90
2009,06,27,05,48,8.90
2009,06,27,05,49,8.90
2009,06,27,05,50,8.90
2009,06,27,05,51,8.90
2009,06,27,05,52,9.00
2009,06,27,05,53,9.00
2009,06,27,05,54,9.00
2009,06,27,05,55,9.00
2009,06,27,05,56,9.00
2009,06,27,05,57,9.10
2009,06,27,05,58,9.10
2009,06,27,05,59,9.10
2009,06,27,06,00,9.10
2009,06,27,06,01,9.10
2009,06,27,06,02,9.10
2009,06,27,06,03,9.10
2009,06,27,06,04,9.10
2009,06,27,06,05,9.20
2009,06,27,06,06,9.20
2009,06,27,06,07,9.20
2009,06,27,06,08,9.20
2009,06,27,06,09,9.20
2009,06,27,06,10,9.20
2009,06,27,06,11,9.20
2009,06,27,06,12,9.20
2009,06,27,06,13,9.20
2009,06,27,06,14,9.20
2009,06,27,06,15,9.20
2009,06,27,06,16,9.30
2009,06,27,06,17,9.30
2009,06,27,06,18,9.30
2009,06,27,06,19,9.30
2009,06,27,06,20,9.40
2009,06,27,06,21,9.40
2009,06,27,06,22,9.40
2009,06,27,06,23,9.40
2009,06,27,06,24,9.40
2009,06,27,06,25,9.50
2009,06,27,06,26,9.50
2009,06,27,06,27,9.50
2009,06,27,06,28,9.60
2009,06,27,06,29,9.60
2009,06,27,06,30,9.60
2009,06,27,06,31,9.60
2009,06,27,06,32,9.70
2009,06,27,06,33,9.70
2009,06,27,06,34,9.70
2009,06,27,06,35,9.70
2009,06,27,06,36,9.70
2009,06,27,06,37,9.70
2009,06,27,06,38,9.70
2009,06,27,06,39,9.80
2009,06,27,06,40,9.80
2009,06,27,06,41,9.80
2009,06,27,06,42,9.90
2009,06,27,06,43,9.90
2009,06,27,06,44,9.90
2009,06,27,06,45,9.90
2009,06,27,06,46,9.90
2009,06,27,06,47,10.00
2009,06,27,06,48,10.10
2009,06,27,06,49,10.10
2009,06,27,06,50,10.10
2009,06,27,06,51,10.10
2009,06,27,06,52,10.20
2009,06,27,06,53,10.20
2009,06,27,06,54,10.20
2009,06,27,06,55,10.20
2009,06,27,06,56,10.20
2009,06,27,06,57,10.20
2009,06,27,06,58,10.30
2009,06,27,06,59,10.30
2009,06,27,07,00,10.30
2009,06,27,07,01,10.30
2009,06,27,07,02,10.30
2009,06,27,07,03,10.30
2009,06,27,07,04,10.40
2009,06,27,07,05,10.30
2009,06,27,07,06,10.40
2009,06,27,07,07,10.40
2009,06,27,07,08,10.40
2009,06,27,07,09,10.40
2009,06,27,07,10,10.50
2009,06,27,07,11,10.60
2009,06,27,07,12,10.60
2009,06,27,07,13,10.60
2009,06,27,07,14,10.70
2009,06,27,07,15,10.70
2009,06,27,07,16,10.80
2009,06,27,07,17,10.80
2009,06,27,07,18,10.90
2009,06,27,07,19,10.90
2009,06,27,07,20,10.90
2009,06,27,07,21,10.90
2009,06,27,07,22,10.90
2009,06,27,07,23,11.00
2009,06,27,07,24,11.10
2009,06,27,07,25,11.10
2009,06,27,07,26,11.10
2009,06,27,07,27,11.20
2009,06,27,07,28,11.30
2009,06,27,07,29,11.30
2009,06,27,07,30,11.40
2009,06,27,07,31,11.40
2009,06,27,07,32,11.50
2009,06,27,07,33,11.60
2009,06,27,07,34,11.60
2009,06,27,07,35,11.60
2009,06,27,07,36,11.60
2009,06,27,07,37,11.60
2009,06,27,07,38,11.60
2009,06,27,07,39,11.60
2009,06,27,07,40,11.60
2009,06,27,07,41,11.70
2009,06,27,07,42,11.80
2009,06,27,07,43,11.90
2009,06,27,07,44,12.00
2009,06,27,07,45,12.10
2009,06,27,07,46,12.20
2009,06,27,07,47,12.30
2009,06,27,07,48,12.30
2009,06,27,07,49,12.40
2009,06,27,07,50,12.40
2009,06,27,07,51,12.50
2009,06,27,07,52,12.50
2009,06,27,07,53,12.60
2009,06,27,07,54,12.70
2009,06,27,07,55,12.70
2009,06,27,07,56,12.80
2009,06,27,07,57,12.80
2009,06,27,07,58,12.80
2009,06,27,07,59,12.80
2009,06,27,08,00,12.80
2009,06,27,08,01,12.70
2009,06,27,08,02,12.70
2009,06,27,08,03,12.60
2009,06,27,08,04,12.60
2009,06,27,08,05,12.60
2009,06,27,08,06,12.60
2009,06,27,08,07,12.60
2009,06,27,08,08,12.60
2009,06,27,08,09,12.60
2009,06,27,08,10,12.60
2009,06,27,08,11,12.60
2009,06,27,08,12,12.50
2009,06,27,08,13,12.50
2009,06,27,08,14,12.50
2009,06,27,08,15,12.50
2009,06,27,08,16,12.50
2009,06,27,08,17,12.50
2009,06,27,08,18,12.50
2009,06,27,08,19,12.50
2009,06,27,08,20,12.50
2009,06,27,08,21,12.60
2009,06,27,08,22,12.60
2009,06,27,08,23,12.70
2009,06,27,08,24,12.70
2009,06,27,08,25,12.80
2009,06,27,08,26,12.80
2009,06,27,08,27,12.80
2009,06,27,08,28,12.90
2009,06,27,08,29,12.90
2009,06,27,08,30,13.00
2009,06,27,08,31,13.00
2009,06,27,08,32,13.10
2009,06,27,08,33,13.20
2009,06,27,08,34,13.30
2009,06,27,08,35,13.30
2009,06,27,08,36,13.40
2009,06,27,08,37,13.40
2009,06,27,08,38,13.40
2009,06,27,08,39,13.50
2009,06,27,08,40,13.50
2009,06,27,08,41,13.60
2009,06,27,08,42,13.60
2009,06,27,08,43,13.60
2009,06,27,08,44,13.60
2009,06,27,08,45,13.70
2009,06,27,08,46,13.70
2009,06,27,08,47,13.70
2009,06,27,08,48,13.70
2009,06,27,08,49,13.80
2009,06,27,08,50,13.90
2009,06,27,08,51,13.90
2009,06,27,08,52,13.90
2009,06,27,08,53,13.90
2009,06,27,08,54,13.90
2009,06,27,08,55,13.90
2009,06,27,08,56,13.80
2009,06,27,08,57,13.80
2009,06,27,08,58,13.90
2009,06,27,08,59,13.90
2009,06,27,09,00,13.90
2009,06,27,09,01,13.90
2009,06,27,09,02,13.90
2009,06,27,09,03,13.90
2009,06,27,09,04,13.90
2009,06,27,09,05,13.80
2009,06,27,09,06,13.80
2009,06,27,09,07,13.80
2009,06,27,09,08,13.80
2009,06,27,09,09,13.90
2009,06,27,09,10,14.00
2009,06,27,09,11,14.00
2009,06,27,09,12,14.00
2009,06,27,09,13,14.10
2009,06,27,09,14,14.10
2009,06,27,09,15,14.10
2009,06,27,09,16,14.10
2009,06,27,09,17,14.10
2009,06,27,09,18,14.20
2009,06,27,09,19,14.20
2009,06,27,09,20,14.30
2009,06,27,09,21,14.40
2009,06,27,09,22,14.40
2009,06,27,09,23,14.40
2009,06,27,09,24,14.50
2009,06,27,09,25,14.50
2009,06,27,09,26,14.60
2009,06,27,09,27,14.60
2009,06,27,09,28,14.60
2009,06,27,09,29,14.60
2009,06,27,09,30,14.60
2009,06,27,09,31,14.70
2009,06,27,09,32,14.70
2009,06,27,09,33,14.70
2009,06,27,09,34,14.70
2009,06,27,09,35,14.70
2009,06,27,09,36,14.70
2009,06,27,09,37,14.70
2009,06,27,09,38,14.70
2009,06,27,09,39,14.70
2009,06,27,09,40,14.70
2009,06,27,09,41,14.60
2009,06,27,09,42,14.50
2009,06,27,09,43,14.50
2009,06,27,09,44,14.50
2009,06,27,09,45,14.50
2009,06,27,09,46,14.40
2009,06,27,09,47,14.20
2009,06,27,09,48,14.20
2009,06,27,09,49,14.10
2009,06,27,09,50,14.00
2009,06,27,09,51,14.00
2009,06,27,09,52,14.00
2009,06,27,09,53,14.00
2009,06,27,09,54,14.00
2009,06,27,09,55,14.10
2009,06,27,09,56,14.20
2009,06,27,09,57,14.30
2009,06,27,09,58,14.40
2009,06,27,09,59,14.40
2009,06,27,10,00,14.40
2009,06,27,10,01,14.50
2009,06,27,10,02,14.40
2009,06,27,10,03,14.50
2009,06,27,10,04,14.50
2009,06,27,10,05,14.60
2009,06,27,10,06,14.50
2009,06,27,10,07,14.50
2009,06,27,10,08,14.50
2009,06,27,10,09,14.40
2009,06,27,10,10,14.30
2009,06,27,10,11,14.20
2009,06,27,10,12,14.20
2009,06,27,10,13,14.10
2009,06,27,10,14,14.00
2009,06,27,10,15,14.00
2009,06,27,10,16,14.10
2009,06,27,10,17,14.10
2009,06,27,10,18,13.90
2009,06,27,10,19,13.80
2009,06,27,10,20,13.70
2009,06,27,10,21,13.60
2009,06,27,10,22,13.60
2009,06,27,10,23,13.60
2009,06,27,10,24,13.60
2009,06,27,10,25,13.50
2009,06,27,10,26,13.50
2009,06,27,10,27,13.50
2009,06,27,10,28,13.50
2009,06,27,10,29,13.50
2009,06,27,10,30,13.60
2009,06,27,10,31,13.60
2009,06,27,10,32,13.70
2009,06,27,10,33,13.70
2009,06,27,10,34,13.70
2009,06,27,10,35,13.70
2009,06,27,10,36,13.60
2009,06,27,10,37,13.60
2009,06,27,10,38,13.60
2009,06,27,10,39,13.60
2009,06,27,10,40,13.60
2009,06,27,10,41,13.70
2009,06,27,10,42,13.70
2009,06,27,10,43,13.70
2009,06,27,10,44,13.80
2009,06,27,10,45,13.80
2009,06,27,10,46,13.90
2009,06,27,10,47,14.00
2009,06,27,10,48,14.00
2009,06,27,10,49,14.00
2009,06,27,10,50,13.90
2009,06,27,10,51,13.60
2009,06,27,10,52,13.40
2009,06,27,10,53,13.20
2009,06,27,10,54,13.10
2009,06,27,10,55,13.10
2009,06,27,10,56,13.00
2009,06,27,10,57,13.00
2009,06,27,10,58,13.00
2009,06,27,10,59,13.00
2009,06,27,11,00,13.10
2009,06,27,11,01,13.00
2009,06,27,11,02,13.00
2009,06,27,11,03,13.10
2009,06,27,11,04,13.10
2009,06,27,11,05,13.20
2009,06,27,11,06,13.30
2009,06,27,11,07,13.30
2009,06,27,11,08,13.40
2009,06,27,11,09,13.50
2009,06,27,11,10,13.50
2009,06,27,11,11,13.60
2009,06,27,11,12,13.60
2009,06,27,11,13,13.50
2009,06,27,11,14,13.40
2009,06,27,11,15,13.30
2009,06,27,11,16,13.20
2009,06,27,11,17,13.10
2009,06,27,11,18,13.00
2009,06,27,11,19,13.00
2009,06,27,11,20,12.90
2009,06,27,11,21,12.90
2009,06,27,11,22,12.80
2009,06,27,11,23,12.70
2009,06,27,11,24,12.70
2009,06,27,11,25,12.60
2009,06,27,11,26,12.60
2009,06,27,11,27,12.50
2009,06,27,11,28,12.40
2009,06,27,11,29,12.30
2009,06,27,11,30,12.30
2009,06,27,11,31,12.30
2009,06,27,11,32,12.40
2009,06,27,11,33,12.50
2009,06,27,11,34,12.60
2009,06,27,11,35,12.70
2009,06,27,11,36,12.90
2009,06,27,11,37,13.00
2009,06,27,11,38,13.00
2009,06,27,11,39,13.10
2009,06,27,11,40,13.10
2009,06,27,11,41,13.20
2009,06,27,11,42,13.20
2009,06,27,11,43,13.20
2009,06,27,11,44,13.10
2009,06,27,11,45,13.00
2009,06,27,11,46,13.10
2009,06,27,11,47,13.20
2009,06,27,11,48,13.30
2009,06,27,11,49,13.50
2009,06,27,11,50,13.50
2009,06,27,11,51,13.40
2009,06,27,11,52,13.20
2009,06,27,11,53,13.10
2009,06,27,11,54,13.10
2009,06,27,11,55,13.00
2009,06,27,11,56,13.00
2009,06,27,11,57,13.00
2009,06,27,11,58,13.00
2009,06,27,11,59,13.00
2009,06,27,12,00,13.00
2009,06,27,12,01,13.10
2009,06,27,12,02,13.20
2009,06,27,12,03,13.00
2009,06,27,12,04,13.00
2009,06,27,12,05,12.90
2009,06,27,12,06,12.90
2009,06,27,12,07,12.90
2009,06,27,12,08,12.80
2009,06,27,12,09,12.90
2009,06,27,12,10,13.00
2009,06,27,12,11,13.10
2009,06,27,12,12,13.20
2009,06,27,12,13,13.30
2009,06,27,12,14,13.40
2009,06,27,12,15,13.50
2009,06,27,12,16,13.60
2009,06,27,12,17,13.70
2009,06,27,12,18,13.80
2009,06,27,12,19,13.90
2009,06,27,12,20,14.00
2009,06,27,12,21,14.10
2009,06,27,12,22,14.20
2009,06,27,12,23,14.20
2009,06,27,12,24,14.20
2009,06,27,12,25,14.10
2009,06,27,12,26,14.10
2009,06,27,12,27,14.10
2009,06,27,12,28,14.10
2009,06,27,12,29,14.10
2009,06,27,12,30,14.20
2009,06,27,12,31,14.40
2009,06,27,12,32,14.50
2009,06,27,12,33,14.60
2009,06,27,12,34,14.60
2009,06,27,12,35,14.60
2009,06,27,12,36,14.60
2009,06,27,12,37,14.60
2009,06,27,12,38,14.50
2009,06,27,12,39,14.50
2009,06,27,12,40,14.60
2009,06,27,12,41,14.70
2009,06,27,12,42,14.80
2009,06,27,12,43,15.00
2009,06,27,12,44,15.10
2009,06,27,12,45,15.20
2009,06,27,12,46,15.30
2009,06,27,12,47,15.40
2009,06,27,12,48,15.30
2009,06,27,12,49,15.30
2009,06,27,12,50,15.20
2009,06,27,12,51,15.10
2009,06,27,12,52,15.10
2009,06,27,12,53,15.00
2009,06,27,12,54,15.00
2009,06,27,12,55,15.00
2009,06,27,12,56,14.90
2009,06,27,12,57,14.90
2009,06,27,12,58,14.90
2009,06,27,12,59,15.00
2009,06,27,13,00,15.10
2009,06,27,13,01,15.10
2009,06,27,13,02,15.20
2009,06,27,13,03,15.30
2009,06,27,13,04,15.30
2009,06,27,13,05,15.30
2009,06,27,13,06,15.40
2009,06,27,13,07,15.40
2009,06,27,13,08,15.40
2009,06,27,13,09,15.30
2009,06,27,13,10,15.40
2009,06,27,13,11,15.50
2009,06,27,13,12,15.70
2009,06,27,13,13,15.90
2009,06,27,13,14,16.10
2009,06,27,13,15,16.10
2009,06,27,13,16,16.20
2009,06,27,13,17,16.50
2009,06,27,13,18,16.80
2009,06,27,13,19,17.10
2009,06,27,13,20,17.30
2009,06,27,13,21,17.50
2009,06,27,13,22,17.80
2009,06,27,13,23,17.90
2009,06,27,13,24,18.00
2009,06,27,13,25,18.00
2009,06,27,13,26,18.00
2009,06,27,13,27,18.10
2009,06,27,13,28,18.10
2009,06,27,13,29,18.20
2009,06,27,13,30,18.20
2009,06,27,13,31,18.30
2009,06,27,13,32,18.40
2009,06,27,13,33,18.50
2009,06,27,13,34,18.60
2009,06,27,13,35,18.60
2009,06,27,13,36,18.60
2009,06,27,13,37,18.60
2009,06,27,13,38,18.60
2009,06,27,13,39,18.60
2009,06,27,13,40,18.60
2009,06,27,13,41,18.60
2009,06,27,13,42,18.50
2009,06,27,13,43,18.60
2009,06,27,13,44,18.60
2009,06,27,13,45,18.70
2009,06,27,13,46,18.80
2009,06,27,13,47,18.70
2009,06,27,13,48,18.70
2009,06,27,13,49,18.80
2009,06,27,13,50,18.90
2009,06,27,13,51,18.90
2009,06,27,13,52,18.90
2009,06,27,13,53,18.80
2009,06,27,13,54,18.80
2009,06,27,13,55,18.80
2009,06,27,13,56,18.90
2009,06,27,13,57,18.90
2009,06,27,13,58,18.70
2009,06,27,13,59,18.50
2009,06,27,14,00,18.50
2009,06,27,14,01,18.50
2009,06,27,14,02,18.60
2009,06,27,14,03,18.60
2009,06,27,14,04,18.60
2009,06,27,14,05,18.60
2009,06,27,14,06,18.70
2009,06,27,14,07,18.80
2009,06,27,14,08,18.90
2009,06,27,14,09,18.80
2009,06,27,14,10,18.60
2009,06,27,14,11,18.60
2009,06,27,14,12,18.50
2009,06,27,14,13,18.50
2009,06,27,14,14,18.30
2009,06,27,14,15,18.30
2009,06,27,14,16,18.30
2009,06,27,14,17,18.20
2009,06,27,14,18,18.30
2009,06,27,14,19,18.40
2009,06,27,14,20,18.50
2009,06,27,14,21,18.50
2009,06,27,14,22,18.60
2009,06,27,14,23,18.70
2009,06,27,14,24,18.80
2009,06,27,14,25,18.90
2009,06,27,14,26,18.90
2009,06,27,14,27,18.90
2009,06,27,14,28,19.00
2009,06,27,14,29,19.10
2009,06,27,14,30,19.20
2009,06,27,14,31,19.30
2009,06,27,14,32,19.50
2009,06,27,14,33,19.60
2009,06,27,14,34,19.60
2009,06,27,14,35,19.60
2009,06,27,14,36,19.70
2009,06,27,14,37,19.80
2009,06,27,14,38,19.70
2009,06,27,14,39,19.80
2009,06,27,14,40,19.90
2009,06,27,14,41,19.90
2009,06,27,14,42,19.90
2009,06,27,14,43,19.90
2009,06,27,14,44,20.10
2009,06,27,14,45,20.20
2009,06,27,14,46,20.20
2009,06,27,14,47,20.30
2009,06,27,14,48,20.30
2009,06,27,14,49,20.40
2009,06,27,14,50,20.40
2009,06,27,14,51,20.40
2009,06,27,14,52,20.40
2009,06,27,14,53,20.40
2009,06,27,14,54,20.40
2009,06,27,14,55,20.40
2009,06,27,14,56,20.40
2009,06,27,14,57,20.40
2009,06,27,14,58,20.40
2009,06,27,14,59,20.40
2009,06,27,15,00,20.40
2009,06,27,15,01,20.40
2009,06,27,15,02,20.40
2009,06,27,15,03,20.50
2009,06,27,15,04,20.50
2009,06,27,15,05,20.60
2009,06,27,15,06,20.70
2009,06,27,15,07,20.80
2009,06,27,15,08,20.80
2009,06,27,15,09,20.80
2009,06,27,15,10,20.70
2009,06,27,15,11,20.70
2009,06,27,15,12,20.80
2009,06,27,15,13,20.80
2009,06,27,15,14,20.90
2009,06,27,15,15,20.90
2009,06,27,15,16,21.00
2009,06,27,15,17,21.00
2009,06,27,15,18,21.10
2009,06,27,15,19,21.10
2009,06,27,15,20,21.20
2009,06,27,15,21,21.30
2009,06,27,15,22,21.30
2009,06,27,15,23,21.20
2009,06,27,15,24,21.10
2009,06,27,15,25,21.10
2009,06,27,15,26,21.10
2009,06,27,15,27,21.10
2009,06,27,15,28,21.00
2009,06,27,15,29,21.00
2009,06,27,15,30,20.90
2009,06,27,15,31,20.80
2009,06,27,15,32,20.70
2009,06,27,15,33,20.60
2009,06,27,15,34,20.60
2009,06,27,15,35,20.50
2009,06,27,15,36,20.40
2009,06,27,15,37,20.30
2009,06,27,15,38,20.20
2009,06,27,15,39,20.20
2009,06,27,15,40,20.20
2009,06,27,15,41,20.20
2009,06,27,15,42,20.10
2009,06,27,15,43,20.00
2009,06,27,15,44,19.90
2009,06,27,15,45,19.80
2009,06,27,15,46,19.80
2009,06,27,15,47,19.80
2009,06,27,15,48,19.80
2009,06,27,15,49,19.80
2009,06,27,15,50,19.80
2009,06,27,15,51,19.80
2009,06,27,15,52,19.70
2009,06,27,15,53,19.70
2009,06,27,15,54,19.70
2009,06,27,15,55,19.70
2009,06,27,15,56,19.80
2009,06,27,15,57,19.90
2009,06,27,15,58,19.90
2009,06,27,15,59,20.10
2009,06,27,16,00,20.10
2009,06,27,16,01,20.10
2009,06,27,16,02,20.00
2009,06,27,16,03,19.90
2009,06,27,16,04,19.90
2009,06,27,16,05,19.80
2009,06,27,16,06,19.80
2009,06,27,16,07,19.80
2009,06,27,16,08,19.80
2009,06,27,16,09,19.80
2009,06,27,16,10,19.90
2009,06,27,16,11,19.80
2009,06,27,16,12,19.70
2009,06,27,16,13,19.70
2009,06,27,16,14,19.70
2009,06,27,16,15,19.70
2009,06,27,16,16,19.80
2009,06,27,16,17,19.80
2009,06,27,16,18,19.70
2009,06,27,16,19,19.60
2009,06,27,16,20,19.50
2009,06,27,16,21,19.50
2009,06,27,16,22,19.50
2009,06,27,16,23,19.50
2009,06,27,16,24,19.60
2009,06,27,16,25,19.50
2009,06,27,16,26,19.40
2009,06,27,16,27,19.30
2009,06,27,16,28,19.30
2009,06,27,16,29,19.30
2009,06,27,16,30,19.30
2009,06,27,16,31,19.30
2009,06,27,16,32,19.20
2009,06,27,16,33,19.20
2009,06,27,16,34,19.20
2009,06,27,16,35,19.30
2009,06,27,16,36,19.40
2009,06,27,16,37,19.40
2009,06,27,16,38,19.50
2009,06,27,16,39,19.60
2009,06,27,16,40,19.60
2009,06,27,16,41,19.50
2009,06,27,16,42,19.50
2009,06,27,16,43,19.40
2009,06,27,16,44,19.30
2009,06,27,16,45,19.30
2009,06,27,16,46,19.20
2009,06,27,16,47,19.20
2009,06,27,16,48,19.20
2009,06,27,16,49,19.20
2009,06,27,16,50,19.20
2009,06,27,16,51,19.20
2009,06,27,16,52,19.20
2009,06,27,16,53,19.30
2009,06,27,16,54,19.50
2009,06,27,16,55,19.60
2009,06,27,16,56,19.60
2009,06,27,16,57,19.60
2009,06,27,16,58,19.50
2009,06,27,16,59,19.50
2009,06,27,17,00,19.50
2009,06,27,17,01,19.50
2009,06,27,17,02,19.40
2009,06,27,17,03,19.30
2009,06,27,17,04,19.20
2009,06,27,17,05,19.30
2009,06,27,17,06,19.30
2009,06,27,17,07,19.30
2009,06,27,17,08,19.30
2009,06,27,17,09,19.30
2009,06,27,17,10,19.30
2009,06,27,17,11,19.30
2009,06,27,17,12,19.20
2009,06,27,17,13,19.20
2009,06,27,17,14,19.10
2009,06,27,17,15,19.10
2009,06,27,17,16,19.10
2009,06,27,17,17,19.10
2009,06,27,17,18,19.10
2009,06,27,17,19,19.10
2009,06,27,17,20,19.00
2009,06,27,17,21,18.90
2009,06,27,17,22,18.90
2009,06,27,17,23,18.90
2009,06,27,17,24,18.90
2009,06,27,17,25,18.70
2009,06,27,17,26,18.70
2009,06,27,17,27,18.60
2009,06,27,17,28,18.60